Location: ???????
(60.4260°N, 46.9069°E)
Time: 22:15:49
(UTC+00:00)

Cosmos 990 Rocket - Pass Details

Date: 30 March 2020
Orbit: 746 x 770 km, 74.0° (Epoch: 24 May)

Event Time Altitude Azimuth Distance (km) Brightness Sun altitude
Exits shadow 01:28:23 - 222° (SW) 2,636 6.2 -7.3°
Reaches altitude 10° 01:29:20 10° 223° (SW) 2,265 5.9 -7.2°
Maximum altitude 01:34:27 69° 307° (NW) 806 4.0 -6.6°
Drops below altitude 10° 01:39:37 10° 31° (NNE) 2,284 7.3 -6.0°
Sets 01:42:00 0° 34° (NE) 3,214 8.2 -5.7°
